Regional Weather Roundup
Issued by NWS

Home | Current Version | Previous Version | Graphics & Text | Print | Product List | Glossary On
Versions: 1 2 3 4 5 6 7 8 9 10 11 12 13 14 15 16 17 18 19 20 21 22 23 24 25 26 27 28 29 30 31 32 33 34 35 36 37 38 39 40 41 42 43 44 45 46 47 48 49 50
000
ASUS45 KCYS 040910
RWRWY

WYOMING REGIONAL WEATHER ROUNDUP
NATIONAL WEATHER SERVICE CHEYENNE WY
300 AM MDT SAT JUL 04 2015

NOTE:  "FAIR" INDICATES FEW OR NO CLOUDS BELOW 12,000 FEET
WITH NO SIGNIFICANT WEATHER AND/OR OBSTRUCTIONS TO VISIBILITY.

WYZ001-041000-
YELLOWSTONE NATIONAL PARK

CITY           SKY/WX    TMP DP  RH WIND       PRES   REMARKS
LK YELLOWSTONE   N/A     46  39  76 NW3       30.21S
W YELLOWSTONE  NOT AVBL

$$
WYZ002>013-054>058-071-098>099-041000-
NORTHERN WYOMING

CITY           SKY/WX    TMP DP  RH WIND       PRES   REMARKS
JACKSON        FAIR      54  46  76 NE3       30.09R
CODY           FAIR      66  48  52 SW8       29.96F
GREYBULL       FAIR      68  53  58 SE5       29.87F
WORLAND        FAIR      61  54  77 CALM      29.90S
SHERIDAN       FAIR      60  54  80 CALM      29.87F
BUFFALO        FAIR      66  50  56 W6        29.95F
GILLETTE       FAIR      62  56  80 SE5       29.92F
HULETT         FAIR      72  55  56 S12       29.93F
NEWCASTLE      FAIR      68  52  56 SE9       29.96F

$$
WYZ014>020-022>026-101>103-041000-
CENTRAL WYOMING

CITY           SKY/WX    TMP DP  RH WIND       PRES   REMARKS
BIG PINEY      FAIR      58  40  51 NE5       30.15S
PINEDALE       FAIR      55  48  76 W3        30.16S
DUBOIS         FAIR      54  37  54 NW8       30.14F
LANDER         FAIR      65  47  52 CALM      30.00F
RIVERTON       MOCLDY    64  50  60 NW7       30.00S
CASPER         FAIR      62  53  72 N9        29.98F
DOUGLAS        FAIR      62  53  72 E7        29.98F

$$
WYZ021-027>030-104>119-041000-
SOUTHERN WYOMING

CITY           SKY/WX    TMP DP  RH WIND       PRES   REMARKS
EVANSTON       FAIR      65  42  43 SE5       30.16F
KEMMERER       FAIR      59  45  58 N6        30.18S
FORT BRIDGER   SUNNY     72  39  30 W9        30.17F
ROCK SPRINGS   FAIR      69  39  33 CALM      30.12F
DIXON          FAIR      58  41  52 CALM      30.13S
RAWLINS        FAIR      60  49  66 CALM      30.11S
SARATOGA       FAIR      55  46  71 SW7       30.14R
LARAMIE        FAIR      56  51  84 SE7       30.13F
CHEYENNE       FAIR      63  54  72 S5        30.09S
TORRINGTON     FAIR      68  57  68 SE7       29.96F
PINE BLUFFS    FAIR      61  55  82 NW5       30.07R

$$


USA.gov is the U.S. government's official web portal to all federal, state and local government web resources and services.